EW5205 Weather Reports


Display with metric or nautical units.
time (UTC)temp
F
wind
direction
speed
MPH
gust
MPH
rain 1hr
in
rain 24hr
in
rain mn
in
humidity
%
barometer
mb
20260906000053 74 124 1.0 8.0 0.00 0.00 0.00 64 1020.1
20260905234553 75 126 0.0 7.0 0.00 0.00 0.00 63 1020.4
20260905233108 73 189 0.0 1.0 0.00 0.00 0.00 63 1020.6
20260905231556 73 160 0.0 2.0 0.00 0.00 0.00 64 1020.7
20260905230051 75 183 6.0 11.0 0.00 0.00 0.00 62 1020.9
20260905224607 77 231 1.0 6.0 0.00 0.00 0.00 61 1021.0
20260905223054 79 9 0.0 10.0 0.00 0.00 0.00 47 1020.7
20260905221550 78 46 3.0 12.0 0.00 0.00 0.00 47 1020.6
20260905220051 80 3 6.0 15.0 0.00 0.00 0.00 44 1020.8
20260905214548 83 46 2.0 14.0 0.00 0.00 0.00 38 1020.3
20260905213050 87 121 4.0 12.0 0.00 0.00 0.00 33 1020.0
20260905211547 90 164 6.0 15.0 0.00 0.00 0.00 30 1019.9
20260905210045 90 174 10.0 18.0 0.00 0.00 0.00 30 1020.0
20260905204544 89 122 6.0 18.0 0.00 0.00 0.00 34 1020.2
20260905203042 91 184 6.0 13.0 0.00 0.00 0.00 29 1020.5
20260905201539 92 138 1.0 9.0 0.00 0.00 0.00 28 1020.6
20260905201514 92 207 1.0 12.0 0.00 0.00 0.00 29 1020.6
20260905200035 89 221 0.0 8.0 0.00 0.00 0.00 31 1020.7
20260905194533 89 259 0.0 11.0 0.00 0.00 0.00 31 1020.7
20260905193030 88 180 2.0 7.0 0.00 0.00 0.00 32 1021.0
20260905191527 89 194 0.0 11.0 0.00 0.00 0.00 32 1021.3
20260905190028 88 346 0.0 9.0 0.00 0.00 0.00 33 1021.6
20260905184524 88 246 0.0 9.0 0.00 0.00 0.00 34 1021.9
20260905183023 88 242 0.0 10.0 0.00 0.00 0.00 34 1022.0
20260905181519 87 200 0.0 7.0 0.00 0.00 0.00 35 1022.1
20260905180016 86 249 1.0 9.0 0.00 0.00 0.00 36 1022.3
20260905174518 86 275 1.0 9.0 0.00 0.00 0.00 36 1022.5
20260905173023 85 247 0.0 8.0 0.00 0.00 0.00 38 1022.8
20260905171510 84 222 0.0 8.0 0.00 0.00 0.00 38 1022.9
20260905170006 86 34 0.0 0.0 0.00 0.00 0.00 37 1023.0
20260905164502 84 152 1.0 5.0 0.00 0.00 0.00 38 1023.0
20260905163102 83 261 0.0 0.0 0.00 0.00 0.00 40 1022.9
20260905161555 83 238 0.0 0.0 0.00 0.00 0.00 41 1022.9
20260905160049 81 233 0.0 0.0 0.00 0.00 0.00 43 1023.0
20260905154545 80 247 0.0 0.0 0.00 0.00 0.00 44 1023.0
20260905153041 78 292 0.0 0.0 0.00 0.00 0.00 46 1023.1
20260905151536 77 351 0.0 3.0 0.00 0.00 0.00 49 1023.1
20260905150031 75 328 0.0 1.0 0.00 0.00 0.00 52 1023.1
20260905144527 74 358 0.0 1.0 0.00 0.00 0.00 53 1023.1
20260905143028 72 337 0.0 1.0 0.00 0.00 0.00 55 1023.0
20260905141518 70 351 0.0 1.0 0.00 0.00 0.00 59 1023.0
20260905140016 69 343 0.0 0.0 0.00 0.00 0.00 64 1022.9
20260905134513 67 39 0.0 0.0 0.00 0.00 0.00 61 1022.8
20260905133016 64 22 0.0 0.0 0.00 0.00 0.00 56 1022.5
20260905131521 63 12 0.0 0.0 0.00 0.00 0.00 53 1022.4
20260905130008 63 88 0.0 0.0 0.00 0.00 0.00 55 1022.1
20260905124510 62 76 0.0 0.0 0.00 0.00 0.00 52 1022.0
20260905123006 61 57 0.0 0.0 0.00 0.00 0.00 55 1021.9
20260905121505 61 1 0.0 0.0 0.00 0.00 0.00 59 1021.8
20260905120001 61 2 0.0 0.0 0.00 0.00 0.00 59 1021.7
20260905114600 63 116 0.0 0.0 0.00 0.00 0.00 61 1021.6
20260905113102 61 115 0.0 0.0 0.00 0.00 0.00 59 1021.5
20260905111558 62 115 0.0 0.0 0.00 0.00 0.00 63 1021.5
20260905110052 63 115 0.0 0.0 0.00 0.00 0.00 64 1021.4
20260905104550 62 88 0.0 0.0 0.00 0.00 0.00 62 1021.3
20260905103047 63 88 0.0 0.0 0.00 0.00 0.00 64 1021.4
20260905101552 64 86 0.0 0.0 0.00 0.00 0.00 64 1021.5
20260905100041 65 87 0.0 0.0 0.00 0.00 0.00 65 1021.3
20260905094538 66 66 0.0 0.0 0.00 0.00 0.00 66 1021.2
20260905093037 66 76 0.0 0.0 0.00 0.00 0.00 66 1021.1
20260905091538 66 64 0.0 0.0 0.00 0.00 0.00 63 1021.1
20260905090037 66 60 0.0 0.0 0.00 0.00 0.00 63 1021.1
20260905084556 66 26 0.0 0.0 0.00 0.00 0.00 63 1021.1
20260905083032 66 48 0.0 0.0 0.00 0.00 0.00 66 1021.1
20260905081529 66 338 0.0 0.0 0.00 0.00 0.00 61 1021.3
20260905080027 66 13 0.0 0.0 0.00 0.00 0.00 63 1021.5
20260905074528 67 73 0.0 0.0 0.00 0.00 0.00 63 1021.4
20260905073025 68 92 0.0 0.0 0.00 0.00 0.00 65 1021.5
20260905071525 68 73 0.0 0.0 0.00 0.00 0.00 65 1021.6
20260905070023 68 93 0.0 0.0 0.00 0.00 0.00 65 1021.6
20260905064528 68 91 0.0 0.0 0.00 0.00 0.00 65 1021.6
20260905063021 68 89 0.0 0.0 0.00 0.00 0.00 65 1021.5
20260905061517 66 86 0.0 0.0 0.00 0.00 0.00 65 1021.6
20260905060013 66 53 0.0 0.0 0.00 0.00 0.00 65 1021.6
20260905054513 67 72 0.0 0.0 0.00 0.00 0.00 65 1021.6
20260905053010 66 58 0.0 0.0 0.00 0.00 0.00 65 1021.6
20260905051511 67 351 0.0 0.0 0.00 0.00 0.00 65 1021.6
20260905050006 67 87 0.0 0.0 0.00 0.00 0.00 65 1021.6
20260905044502 69 53 0.0 0.0 0.00 0.00 0.00 65 1021.5
20260905043100 70 113 0.0 0.0 0.00 0.00 0.00 63 1021.5
20260905041558 70 75 0.0 0.0 0.00 0.00 0.00 64 1021.4
20260905040056 71 80 0.0 0.0 0.00 0.00 0.00 63 1021.3
20260905034556 71 121 0.0 0.0 0.00 0.00 0.00 64 1021.3
20260905033057 72 98 0.0 0.0 0.00 0.00 0.00 65 1021.2
20260905031558 72 110 0.0 0.0 0.00 0.00 0.00 65 1021.3
20260905030100 73 110 0.0 0.0 0.00 0.00 0.00 65 1021.1
20260905024625 74 102 0.0 0.0 0.00 0.00 0.00 61 1021.0
20260905023056 75 76 0.0 0.0 0.00 0.00 0.00 57 1021.0
20260905021551 76 66 0.0 0.0 0.00 0.00 0.00 49 1020.7
20260905020052 77 27 0.0 0.0 0.00 0.00 0.00 46 1020.6
20260905014548 78 14 0.0 0.0 0.00 0.00 0.00 45 1020.5
20260905013052 79 9 0.0 6.0 0.00 0.00 0.00 44 1020.4
20260905011556 79 14 0.0 7.0 0.00 0.00 0.00 49 1020.5
20260905010047 80 110 0.0 1.0 0.00 0.00 0.00 47 1020.3
20260905004557 80 104 0.0 1.0 0.00 0.00 0.00 47 1020.1
20260905003047 81 132 0.0 0.0 0.00 0.00 0.00 43 1020.1
20260905001546 80 132 0.0 9.0 0.00 0.00 0.00 46 1020.0